Location: Newark
(13.6797°N, 8.5297°E)
Time: 03:40:19
(UTC+00:00)

Courier 1B Rocket - Pass Details

Date: 18 January 2020
Orbit: 920 x 1202 km, 28.2° (Epoch: 17 February)

Event Time Altitude Azimuth Distance (km) Brightness Sun altitude
Rises 19:51:16 0° 296° (WNW) 3,558 8.5 -36.1°
Reaches altitude 10° 19:53:50 10° 295° (WNW) 2,630 7.7 -36.6°
Enters shadow 19:57:06 33° 294° (WNW) 1,525 6.2 -37.4°
Maximum altitude 20:00:10 86° 209° (SSW) 967 - -38.1°
Drops below altitude 10° 20:06:54 10° 119° (ESE) 2,785 - -39.7°
Sets 20:09:41 0° 118° (ESE) 3,780 - -40.4°
